www.pogodaiklimat.ru

Погода и климат >> Архив погоды >> Мексика >> Арриага


ПОГОДА в Арриаге

  • Прогноз погоды в Арриаге
  • Монитор погоды в Арриаге

АРХИВ ПОГОДЫ в Арриаге

Время (UTC), дата Ветер
(напр.,м/с)
 
Видим.   Явления Облачность Т
(С)
Тd
(С)
f
(%)
Тe
(С)
Тes
(С)
Комфортность P
(гПа)
Po
(гПа)
Тmin
(С)
Tmax
(С)
R
(мм)
R24
(мм)
S
(см)
03 14.05 штиль 0 100 м 3/3 800 м
[Cu hum]
+29.8 +27.2 86 +47 +47 опасность
перегрева
1010.4 1005.0
06 14.05 штиль 0 100 м 3/3 800 м
[Cu hum]
+28.6 +27.0 91 +45 +45 опасность
перегрева
1011.3 1005.9 +22.0 +38.5
09 14.05 штиль 0 100 м 3/3 800 м
[Cu hum]
+28.2 +26.9 93 +44 +44 опасность
перегрева
1008.9 1004.3
12 14.05 штиль 0 1000 м 5/0 2000 м
[Ac As]
+27.8 +27.0 95 +44 +44 опасность
перегрева
1010.6 1005.1 +24.0 +38.5
15 14.05 штиль 0 5000 м 6/0 2000 м
[Ac As]
+30.8 +28.2 86 +51 +60 опасность
перегрева
1012.8 1007.3
18 14.05 штиль 0 5000 м 6/0 2000 м
[Ac As]
+35.0 +31.2 81 +67 +84 опасность
перегрева
1010.8 1005.3 +24.0 +37.0
21 14.05 Ю 1 5000 м 4/4 800 м
[Cu hum]
+36.2 +31.8 78 +70 +79 опасность
перегрева
1008.6 1003.2
00 15.05 Ю 1 5000 м 4/4 800 м
[Cu hum]
+31.9 +27.9 79 +52 +52 опасность
перегрева
1008.4 1003.0 +24.0 +39.0
03 15.05 штиль 0 1000 м 3/3 800 м
[Cu hum]
+30.0 +25.3 76 +44 +44 опасность
перегрева
1010.8 1005.4
06 15.05 штиль 0 1000 м 4/0
[Ac lent]
+29.2 +23.5 71 +40 +40 очень
душно
1011.3 1005.9 +39.0
09 15.05 штиль 0 1000 м ясно +28.3 +22.3 70 +37 +37 очень
душно
1009.4 1003.9
12 15.05 штиль 0 2000 м ясно +27.2 +22.8 77 +36 +36 очень
душно
1010.3 1004.8 +24.0 +39.0
15 15.05 штиль 0 4000 м 4/0
[Cs]
+30.8 +26.4 77 +47 +60 опасность
перегрева
1011.5 1006.0
18 15.05 штиль 0 5000 м 5/0
[Cs]
+36.7 +30.8 72 +66 +89 опасность
перегрева
1010.0 1004.5 +24.0 +38.0
21 15.05 Ю 1 3000 м дым 4/4 1020 м
[Sc diur, vesp]
+37.5 +31.5 72 +70 +79 опасность
перегрева
1008.2 1002.8
00 16.05 штиль 0 3000 м дым 3/3 1020 м
[Sc diur, vesp]
+34.4 +29.0 74 +58 +59 опасность
перегрева
1008.9 1003.6 +24.0 +38.4
03 16.05 штиль 0 1000 м 3/3 1020 м
[Sc diur, vesp]
+30.6 +28.7 90 +53 +53 опасность
перегрева
1012.0 1006.6
06 16.05 штиль 0 1000 м 3/3 1020 м
[Sc diur, vesp]
+28.0 +26.7 93 +44 +44 опасность
перегрева
1012.4 1007.0 +24.0 +38.4
09 16.05 штиль 0 1000 м ясно +26.8 +25.5 93 +39 +39 очень
душно
1011.4 1005.8
12 16.05 штиль 0 2000 м 3/3 1020 м
[Sc diur, vesp]
+27.0 +25.7 93 +40 +40 очень
душно
1010.2 1004.7 +23.5 +38.4
15 16.05 штиль 0 3000 м дым 4/0 2000 м
[As trans]
+31.2 +28.9 88 +54 +65 опасность
перегрева
1011.6 1006.1
18 16.05 штиль 0 3000 м дым 5/0 2000 м
[As trans]
+35.2 +31.2 80 +67 +88 опасность
перегрева
1010.8 1005.3 +23.5 +36.2
21 16.05 С 1 5000 м 5/5 800 м
[Sc]
+33.6 +29.7 80 +59 +67 опасность
перегрева
1009.8 1004.3
00 17.05 штиль 0 4000 м 4/4 800 м
[Sc]
+31.8 +27.8 79 +51 +52 опасность
перегрева
1008.1 1002.7 +23.5 +38.0
03 17.05 штиль 0 1000 м 4/0 2000 м
[Ac As]
+30.6 +25.8 76 +46 +46 опасность
перегрева
1011.3 1005.9
06 17.05 С 1 1000 м {дождь} 6/3 600 м
[Cb cap]
+25.6 +21.9 80 +33 +33 очень
душно
1011.1 1005.6 4
09 17.05 С 1 1000 м 6/3 800 м
[Cb cap]
+25.9 +22.4 81 +34 +34 очень
душно
1010.7 1005.1
12 17.05 штиль 0 4000 м 6/0 2000 м
[Ac As]
+25.2 +23.4 90 +34 +34 очень
душно
1009.6 1004.1 +22.0 +38.0
15 17.05 штиль 0 5000 м 5/0 2000 м
[Ac lent]
+28.9 +25.4 81 +42 +51 опасность
перегрева
1011.6 1006.1
18 17.05 Ю 1 5000 м 5/0 2000 м
[Ac lent]
+33.0 +28.5 77 +55 +70 опасность
перегрева
1010.8 1005.3 +22.0 +34.9
21 17.05 Ю 1 2000 м 6/1 840 м
[Sc Ac lent]
+33.6 +28.5 75 +56 +64 опасность
перегрева
1008.9 1003.5
00 18.05 штиль 0 3000 м 4/4 840 м
[Sc diur, vesp]
+32.0 +28.6 82 +54 +54 опасность
перегрева
1008.4 1003.0 +22.0 +36.8
03 18.05 штиль 0 1000 м 5/1 840 м
[Cb cap Ac trans]
+29.0 +26.4 86 +44 +44 опасность
перегрева
1011.4 1006.0
06 18.05 штиль 0 1000 м 4/0 2000 м
[As op]
+28.0 +25.3 85 +41 +41 опасность
перегрева
1011.0 1005.6 +21.8 +36.8
09 18.05 штиль 0 1000 м 3/0
[Cs]
+27.0 +25.7 93 +40 +40 очень
душно
1009.0 1003.5
12 18.05 штиль 0 2000 м 4/0
[Cs]
+25.2 +23.9 93 +35 +35 очень
душно
1008.8 1003.3 +22.8 +36.8
15 18.05 штиль 0 4000 м 3/3 840 м
[Cu hum]
+31.0 +25.7 73 +46 +56 опасность
перегрева
1009.9 1004.4
18 18.05 Ю 2 3000 м 4/4 840 м
[Sc diur, vesp]
+35.6 +29.8 72 +62 +75 опасность
перегрева
1010.0 1004.5 +22.8 +37.0
21 18.05 Ю 1 5000 м 4/4 800 м
[Sc diur, vesp]
+34.8 +29.1 72 +58 +68 опасность
перегрева
1008.5 1003.0
00 19.05 С 1 5000 м 5/5 800 м
[Sc diur, vesp]
+30.4 +28.9 92 +53 +53 опасность
перегрева
1008.3 1002.9 +22.6 +38.0
03 19.05 штиль 0 100 м {дождь, метель} 6/6 800 м
[Sc]
+28.0 +27.5 97 +45 +45 опасность
перегрева
1010.5 1005.1 12
06 19.05 штиль 0 100 м {дождь, метель} 4/0 2000 м
[Ac As]
+27.2 +26.1 94 +41 +41 опасность
перегрева
1010.6 1005.1 +22.6 +38.0 12
09 19.05 штиль 0 100 м 5/0 2000 м
[Ac As]
+26.4 +25.0 92 +38 +38 очень
душно
1008.9 1003.4
12 19.05 штиль 0 1000 м 3/3 800 м
[Cu hum]
+26.0 +25.2 95 +37 +37 очень
душно
1009.5 1003.9 +24.0 +38.0
15 19.05 штиль 0 5000 м 4/4 800 м
[Cu hum]
+29.4 +26.5 84 +45 +54 опасность
перегрева
1010.5 1005.0
18 19.05 штиль 0 5000 м 6/6 800 м
[Sc diur, vesp]
+33.2 +29.6 81 +58 +70 опасность
перегрева
1010.0 1004.5 +24.0 +35.0
21 19.05 Ю 1 5000 м 8/8 800 м
[Sc diur, vesp]
+32.6 +29.3 83 +57 +60 опасность
перегрева
1008.3 1002.8
00 20.05 Ю 1 5000 м 6/6 800 м
[Sc diur, vesp]
+31.2 +28.4 85 +52 +53 опасность
перегрева
1007.7 1002.2 +24.0 +35.4
03 20.05 штиль 0 1000 м 5/5 800 м
[Sc]
+29.4 +25.2 78 +43 +43 опасность
перегрева
1010.0 1004.6
06 20.05 штиль 0 1000 м {морось} 9/4 600 м
[Cb cap]
+25.8 +21.9 79 +33 +33 очень
душно
1011.3 1005.8 1
09 20.05 штиль 0 1000 м дождь 10/4 800 м
[Cb cap As op]
+24.6 +22.1 86 +32 +32 очень
душно
1010.0 1004.4
12 20.05 штиль 0 4000 м {морось} 8/8 800 м
[Sc]
+24.6 +21.3 82 +31 +31 очень
душно
1010.0 1004.4 +21.0 +35.4 5
15 20.05 штиль 0 5000 м {морось} 3/3 800 м
[Sc diur, vesp]
+29.2 +24.2 74 +41 +51 опасность
перегрева
1011.0 1005.4 5
18 20.05 штиль 0 5000 м 6/6 800 м
[Sc diur, vesp]
+33.6 +29.0 77 +57 +69 опасность
перегрева
1010.0 1004.5 +21.0 +35.4
21 20.05 Ю 1 5000 м 4/4 1020 м
[Sc diur, vesp]
+34.2 +29.2 75 +58 +68 опасность
перегрева
1007.8 1002.4
00 21.05 Ю 1 5000 м 6/4 800 м
[Cb cap]
+28.6 +24 +24 комфорт 1008.1 1002.7 +21.0 +35.2

 

Местоположение метеостанции Арриага (Мексика): широта 16.23 долгота -93.90 высота над уровнем моря 48 м.

В архиве по умолчанию представлена погода в Арриаге за последнюю неделю. Архивные данные за месяц целиком и за предыдущие месяцы, начиная с января 2011 года, Вы можете получить, выбрав интересующий диапазон дат из раскрывающегося списка и нажав кнопку "Ввод!".


*Определитесь, кто Вы:
робот инопланетянин человек

Внимание! Время в таблицах - всемирное. Для получения местного времени необходимо прибавить поправку, которая равна -6 ч.

Смотрите также архив погоды в соседних городах и на ближайших метеорологических станциях:

Погода в Тустла-Гутьерресе (Мексика) (100 км)
Погода в Салина-Крусе (Мексика) (137 км)
Погода в Сан-Кристобаль-де-лас-Касасе (Мексика) (147 км)
Погода в Комитане (Мексика) (189 км)
Погода в Коацакоалькосе (Мексика) (218 км)
Погода в Вильяэрмосе (Мексика) (220 км)
Погода в Тапачуле (Мексика) (229 км)
Погода в Уэуэтенанго (Гватемала) (280 км)
Погода в Пуэрто-Анхеле (Мексика) (283 км)
Погода в Оахаке (Мексика) (313 км)

Пояснения к столбцам:

Ветер - указаны скорость ветра в м/с - средняя за 10 мин, порывы в срок и между сроками (в фигурных скобках) и направление, откуда дует ветер: С - северный, СВ - северо-восточный, В - восточный, ЮВ - юго-восточный, Ю - южный, ЮЗ - юго-западный, З - западный, СЗ - северо-западный.
Видимость - горизонтальная дальность видимости в метрах или километрах. При видимости от 1 до 10 км при отсутствии осадков обычно наблюдается дымка, при ухудшении видимости до 1 км и менее - туман. В сухую погоду видимость может ухудшаться дымом, пылью или мглою.
Явления - указаны атмосферные явления, наблюдавшиеся в срок или в последний час перед сроком; фигурными скобками обозначены явления, наблюдавшиеся между сроками (за 1-3 часа до срока); квадратными скобками обозначены град или гололедные отложения с указанием их диаметра в мм.
Облачность - указаны через наклонную черту общая и нижняя облачность в баллах и высота нижней границы облаков в метрах; квадратными скобками обозначены формы облаков: Ci - перистые, Cs - перисто-слоистые, Cc - перисто-кучевые, Ac - высококучевые, As - высокослоистые, Sc - слоисто-кучевые, Ns - слоисто-дождевые, Cu - кучевые, Cb - кучево-дождевые. Подробнее классификацию облаков см. в Атласе облаков (PDF).
T - Температура воздуха - температура, измеренная на высоте 2 м над землей.
Td - Температура точки росы - температура, при понижении до которой содержащийся в воздухе водяной пар достигнет насыщения.
f - Относительная влажность воздуха - влажноcть воздуха, измеренная на высоте 2 м над землей.
Te - Эффективная температура - температура, которую ощущает одетый по сезону человек в тени. Характеристика душности погоды. При расчете учитывается влияние влажности воздуха и скорости ветра на теплоощущения человека.
Tes - Эффективная температура на солнце - температура, которую ощущает человек, с поправкой на солнечный нагрев. Характеристика знойности погоды. Зависит от высоты солнца над горизонтом, облачности и скорости ветра. Ночью, в пасмурную погоду, а также при ветре 12 м/с и более поправка равна нулю.
P - Атмосферное давление - приведенное к уровню моря атмосферное давление.
Po - Атмосферное давление - измеренное на уровне метеостанции атмосферное давление.
Tmin - Минимальная температура - минимум температуры воздуха на высоте 2 м над землей.
Tmax - Максимальная температура - максимум температуры воздуха на высоте 2 м над землей.
R - Количество осадков - Количество выпавших осадков за период времени, мм. При наведении курсора мыши на число - период времени, за который выпало указанное количество осадков.
R24 - Количество осадков - Количество выпавших осадков за 24 часа, мм.
S - Снежный покров - Высота снежного покрова, см. При наведении курсора мыши на число - состояние снежного покрова и степень покрытия местности в баллах.